Temperature
15 15 15 15 15 15 15 15 15 15 15 15 15 15 16 15 15 16 16 16 16 16 16 16 16 16 16 16 16 16 15 15 16 16 16 16 16 16 15 16 15 16 16
15 15 15 15 15 15 15 15 15 15 15 15 15 15 15 15 15 15 15 15 15 15 15 15 16 16 16 15 15 15 15 15 15 15 15 15 15 15 15 15 15 15 15
15 15 15 15 15 15 15 15 15 15 15 15 15 15 15 15 15 15 15 15 15 15 15 15 15 15 15 15 15 15 15 15 15 15 15 15 15 15 15 15 15 15 15
15 15 15 15 14 14 15 14 14 14 14 14 15 15 15 15 15 14 14 15 15 15 15 15 15 15 15 15 15 15 15 15 15 15 15 15 15 15 15 15 15 15 15
15 15 15 14 14 14 14 14 14 14 14 14 14 14 14 14 14 14 14 14 14 14 14 14 14 15 15 15 15 15 15 15 15 15 14 15 15 15 15 15 14 14 14
15 14 14 14 14 14 14 14 14 14 14 14 14 14 14 14 14 14 14 14 14 14 14 14 14 14 14 14 14 14 14 14 14 14 14 14 14 14 14 14 14 14 14
14 14 14 14 14 14 14 14 13 13 13 13 14 14 14 14 14 14 14 14 14 14 14 14 14 14 14 14 14 14 14 14 14 14 14 14 14 14 14 14 14 14 14
14 14 14 14 14 13 13 13 13 13 13 13 13 13 13 13 14 14 14 13 13 13 13 13 13 13 13 13 13 13 13 14 14 14 14 14 14 14 14 13 13 13 13
14 14 14 14 13 13 13 13 13 13 13 13 13 13 13 13 13 13 13 13 13 13 13 13 13 13 13 13 13 13 13 13 13 13 13 13 13 13 13 13 13 13 13
14 14 14 14 13 13 13 13 13 12 12 12 13 13 13 13 13 12 13 13 13 13 13 12 12 12 12 13 13 13 13 13 13 13 13 13 13 13 13 13 13 13 13
14 13 13 13 13 13 13 12 12 12 12 12 12 12 13 13 13 12 12 12 12 12 12 12 12 12 12 12 12 12 12 12 12 12 13 13 13 13 13 13 13 13 12
13 13 13 13 13 13 12 12 12 12 12 12 12 12 12 12 12 12 12 12 12 12 12 12 12 12 12 12 12 12 12 12 12 12 12 12 12 12 12 12 12 12 12
13 13 13 13 13 12 12 12 12 12 12 12 12 12 12 12 12 12 12 12 12 12 12 12 12 12 12 12 12 12 12 12 12 12 12 12 12 12 12 12 12 12 12
13 13 13 13 12 12 12 12 12 12 11 11 11 11 11 11 11 11 11 11 11 11 11 11 11 11 11 11 11 11 11 11 12 12 12 12 12 12 12 12 12 12 12
13 13 13 12 12 12 12 12 11 11 11 11 11 11 11 11 11 11 11 11 11 11 11 11 11 11 11 11 11 11 11 11 11 11 11 11 11 11 11 12 12 12 12
13 13 12 12 12 12 12 11 11 11 11 11 11 11 11 11 11 11 11 11 11 11 10 10 11 11 11 11 11 11 11 11 11 11 11 11 11 11 11 11 11 11 11
13 12 12 12 12 12 11 11 11 11 11 11 11 11 11 11 11 11 11 10 10 10 10 10 10 10 10 10 10 10 10 10 10 10 10 11 11 11 11 11 11 11 11
13 12 12 12 12 11 11 11 11 11 11 11 11 11 11 10 10 10 10 10 10 10 10 10 10 10 10 10 10 10 10 10 10 10 10 10 10 10 10 10 10 10 10
13 12 12 12 12 11 11 11 11 11 11 11 10 10 10 10 10 10 10 10 10 10 10 10 10 9 9 9 9 9 9 10 10 10 10 10 10 10 10 10 10 10 10
12 12 12 12 11 11 11 11 11 10 10 10 10 10 10 10 10 10 10 10 9 9 9 9 9 9 9 9 9 9 9 9 9 9 9 9 9 9 9 9 9 9 10
12 12 12 11 11 11 11 11 11 10 10 10 10 10 10 10 10 10 9 9 9 9 9 9 9 8 8 8 8 8 8 9 8 9 9 9 9 9 9 9 9 9 9
12 12 11 11 11 11 11 11 10 10 10 10 10 10 9 9 9 9 9 9 9 9 9 8 8 8 8 8 8 8 8 8 8 8 8 9 8 9 9 9 9 9 9
12 11 11 11 11 10 10 10 10 10 10 9 9 9 9 9 9 9 9 9 8 8 8 8 8 8 8 8 8 8 8 8 8 8 8 8 8 8 8 8 8 8 8
11 11 11 11 10 10 10 10 10 9 9 9 9 9 9 9 9 9 8 8 8 8 8 8 8 7 7 7 7 7 7 7 7 7 7 7 7 8 8 8 8 8 8
11 11 11 10 10 10 10 9 9 9 9 9 8 8 8 8 8 8 8 8 8 7 7 7 7 7 7 7 7 7 7 7 7 7 7 7 7 7 7 7 8 8 8
11 10 10 10 10 10 9 9 9 9 8 8 8 8 8 8 8 8 8 7 7 7 7 7 7 7 7 7 7 6 6 6 6 6 6 6 6 6 7 7 7 7 7
Wind_Speed
2 2 2 3 3 2 2 2 3 4 4 5 6 6 5 6 7 8 8 10 10 10 9 8 8 8 8 8 7 7 7 7 7 8 8 7 7 8 7 7 7 7 8
3 2 3 3 2 3 3 3 4 4 4 4 5 5 5 6 6 6 7 8 9 9 9 9 8 8 7 7 8 8 7 7 7 7 6 6 6 6 7 7 7 7 7
4 3 2 2 2 4 5 4 4 4 3 4 4 5 5 5 5 5 6 6 6 7 8 9 9 8 8 8 9 9 9 8 8 7 7 6 6 6 6 6 6 7 7
6 5 3 2 3 4 3 3 3 3 3 3 3 3 3 4 4 5 5 5 5 6 6 8 8 8 8 8 8 9 9 9 9 8 7 6 5 5 4 5 6 6 7
6 4 2 2 4 3 2 3 3 3 3 3 2 2 2 2 2 4 3 4 5 5 5 6 7 7 7 8 8 8 8 8 8 7 7 6 5 5 4 4 5 6 6
6 4 2 3 4 3 3 3 3 2 2 1 2 2 1 1 2 2 2 3 5 5 6 5 5 6 7 7 8 8 8 7 7 7 6 5 5 5 5 5 5 5 6
4 3 2 3 3 3 2 3 2 2 2 1 2 2 1 1 2 2 2 3 4 5 5 5 5 5 5 7 8 8 8 8 7 7 6 5 5 5 5 5 5 5 5
4 3 2 2 2 3 3 3 2 2 2 2 1 1 1 2 3 2 2 2 3 4 4 5 5 6 6 6 7 7 7 7 7 6 6 5 5 5 5 5 5 5 5
4 4 3 2 2 3 2 1 2 1 1 2 2 1 1 0 1 1 2 2 3 2 3 4 5 5 6 6 6 6 7 6 6 6 6 5 5 5 5 4 4 4 4
3 3 2 2 2 2 1 0 1 1 1 1 2 2 1 1 1 1 2 2 2 2 2 3 4 4 6 7 7 6 6 5 5 5 5 4 4 3 3 3 3 3 3
2 2 2 2 1 1 1 0 1 1 1 1 1 1 2 2 1 0 1 1 2 1 1 2 3 4 5 6 7 6 5 4 4 4 4 4 4 3 2 2 2 3 3
1 2 2 1 1 1 1 1 1 1 1 1 1 1 1 1 1 0 0 1 1 1 1 2 2 3 4 5 5 5 4 4 3 3 3 3 3 3 3 3 3 3 3
1 2 2 1 1 1 1 1 1 1 0 0 0 1 0 1 0 0 1 0 1 1 1 1 1 3 3 5 5 4 3 2 2 2 2 3 3 2 2 2 2 2 2
2 3 2 2 1 1 1 2 1 0 0 0 0 1 1 1 1 1 1 1 1 1 1 1 0 2 3 3 3 2 2 1 1 1 1 1 2 1 1 1 1 1 1
3 3 3 3 2 2 1 2 1 1 0 0 1 1 1 1 1 0 0 1 1 1 2 1 1 1 1 3 3 2 2 2 2 2 1 0 0 1 1 1 1 1 1
2 3 3 3 3 2 2 2 0 1 1 1 1 1 1 0 1 1 1 1 1 1 1 1 1 1 1 0 1 0 1 2 4 3 3 2 1 1 0 0 0 1 1
3 3 3 2 3 3 2 2 1 1 1 1 1 0 1 1 1 0 1 1 0 1 1 2 1 1 2 2 1 1 0 2 3 3 4 3 3 2 1 1 1 0 1
2 3 3 3 3 3 2 2 1 1 1 1 1 0 0 1 1 0 0 1 0 0 1 1 2 1 1 1 0 1 1 1 2 3 4 4 3 3 3 2 1 1 1
1 2 3 3 2 2 2 2 2 2 2 2 1 1 1 1 1 0 1 1 1 1 0 1 2 1 1 1 1 2 2 1 2 2 3 4 4 5 5 4 3 2 1
2 2 2 3 2 2 2 2 1 1 1 1 1 1 1 1 1 1 0 0 0 0 1 1 1 2 1 2 1 1 2 2 2 1 2 3 4 5 5 5 5 4 3
3 3 2 2 2 2 1 1 1 0 1 1 1 1 2 2 2 1 1 0 0 0 1 1 1 1 1 1 1 2 2 3 3 1 1 2 2 3 4 5 6 6 5
3 3 3 2 2 1 2 2 1 1 0 1 1 1 1 1 1 1 0 0 1 1 1 1 1 2 2 2 2 2 2 2 3 2 1 2 2 2 3 3 4 5 6
3 3 3 2 2 2 3 2 1 0 0 0 1 1 0 0 0 0 1 1 1 2 2 2 2 3 3 3 2 2 2 2 3 3 1 3 2 2 3 3 5 5 5
3 3 3 2 2 2 2 2 2 1 1 1 1 1 1 0 0 0 1 1 2 3 3 3 3 3 2 2 2 2 3 2 3 2 1 2 2 2 2 3 5 6 6
3 3 3 3 2 2 3 3 2 2 1 2 1 0 0 1 1 2 0 1 1 2 3 4 4 3 3 3 2 1 1 1 2 2 1 1 2 2 1 1 4 5 5
3 3 2 3 3 2 3 4 4 2 2 1 1 1 2 1 2 2 1 1 2 2 2 2 2 2 2 3 4 3 3 2 1 2 1 1 1 1 2 1 2 2 3
Wind_Direction
83 66 82 88 83 83 62 45 47 43 43 44 54 63 57 67 78 82 82 82 79 74 71 68 75 80 79 83 91 93 95 96 96 93 86 80 77 76 75 72 70 75 83
76 70 67 57 57 66 61 62 59 49 39 46 42 51 52 59 78 87 94 87 84 77 70 66 74 80 82 84 87 91 95 97 98 96 89 80 75 72 72 72 71 76 83
79 76 69 55 42 57 55 53 57 58 48 47 42 39 48 48 64 72 84 93 91 81 75 70 71 73 77 82 83 86 86 86 87 86 83 79 76 72 72 75 77 80 82
64 67 64 52 60 59 51 40 50 47 45 42 38 26 41 40 49 65 76 83 95 96 87 77 72 73 74 79 82 81 79 78 78 77 77 75 74 74 77 81 82 81 82
61 65 54 50 68 65 44 47 47 46 52 42 30 15 46 52 40 53 56 73 88 98 103 94 82 76 79 80 80 80 78 75 76 74 72 69 67 71 77 88 90 87 89
61 59 54 55 64 60 46 55 57 40 50 24 17 32 42 67 55 48 34 52 69 78 80 89 95 84 84 85 84 82 79 75 73 71 68 66 62 70 80 89 93 95 95
66 68 49 53 56 68 66 64 66 51 27 29 39 18 10 39 67 65 46 45 55 64 67 70 78 86 87 85 83 80 76 74 70 67 65 64 64 70 80 86 92 98 97
49 58 62 69 60 57 59 59 68 50 12 7 32 44 25 16 7 28 58 58 55 59 53 59 66 73 83 90 83 83 79 74 69 62 60 63 63 74 85 88 95 99 96
60 51 46 55 73 68 58 46 67 71 29 343 9 68 85 104 319 345 15 52 49 53 48 60 65 68 81 83 84 83 85 78 69 62 57 58 60 74 88 92 92 97 98
77 64 52 54 79 89 80 30 82 67 69 348 336 359 25 95 127 329 334 20 43 51 47 46 65 60 78 84 86 82 79 74 71 64 61 61 62 77 85 86 94 105 105
108 104 84 71 89 100 113 126 95 76 65 55 6 354 8 5 23 107 302 346 360 14 53 59 77 70 75 89 93 85 80 73 68 60 56 52 48 55 66 81 95 110 116
149 124 115 116 130 125 131 123 114 102 51 29 16 26 51 5 322 18 295 312 324 337 1 63 81 88 83 87 90 88 87 76 64 54 49 43 38 42 55 70 85 86 91
153 149 131 152 157 150 142 111 107 132 146 74 353 325 357 294 320 85 84 349 351 323 358 19 91 113 94 96 100 99 103 91 73 60 47 38 34 37 47 45 57 71 75
160 154 153 163 143 134 122 111 112 146 124 128 350 341 332 326 18 110 147 106 3 328 330 290 5 110 100 111 125 128 134 145 131 115 60 38 32 34 31 34 38 22 10
162 165 162 159 139 123 111 122 130 151 179 143 243 262 295 320 333 13 131 152 148 285 286 259 357 20 118 134 159 168 172 194 185 193 189 223 44 53 21 56 38 12 12
146 151 162 165 154 151 151 133 147 190 157 173 220 233 249 271 12 24 23 26 105 161 258 275 273 292 23 115 178 199 208 223 219 223 209 200 216 219 152 124 102 44 17
161 174 179 176 159 160 170 156 179 172 209 213 221 231 261 124 99 34 8 13 23 126 230 297 324 347 7 28 32 343 227 207 216 212 202 202 208 215 195 164 132 22 340
179 173 167 175 172 158 169 155 185 210 222 226 235 232 340 60 78 28 37 345 299 190 166 269 301 324 329 307 257 284 280 275 217 218 207 203 214 214 205 201 207 230 306
186 181 164 178 173 164 170 168 182 204 219 215 195 150 143 108 117 97 66 356 315 334 169 224 280 294 306 311 319 304 296 282 278 227 220 218 223 229 222 211 210 211 218
191 184 175 177 177 176 181 189 179 201 234 193 136 132 130 123 125 159 184 230 286 318 256 237 256 276 289 311 351 316 309 299 286 252 248 239 237 241 237 226 218 215 214
180 170 162 160 164 169 174 146 156 231 228 137 106 83 76 77 66 70 58 148 170 253 265 248 259 284 295 315 302 291 291 301 288 254 271 249 207 217 228 229 223 221 221
167 162 165 163 154 144 113 115 117 136 216 161 160 145 136 105 67 33 55 116 140 191 219 223 253 258 274 269 279 287 289 300 286 285 271 263 200 239 219 212 217 217 219
170 165 164 153 157 148 131 130 121 104 81 235 182 154 260 347 92 260 281 255 244 241 229 208 228 249 254 253 245 266 278 268 259 264 274 268 247 239 225 218 217 216 204
170 171 169 172 172 176 168 179 206 198 263 273 255 208 188 76 339 359 267 242 237 234 233 232 237 255 250 239 220 227 244 274 277 275 149 258 270 258 249 216 212 208 200
167 167 169 180 186 188 193 200 200 206 221 253 268 340 91 155 13 34 348 279 281 283 263 249 244 252 267 250 228 181 284 303 291 291 330 268 278 280 263 217 214 212 206
169 170 178 181 177 178 198 203 208 203 214 243 267 11 22 44 39 56 37 327 307 297 306 300 281 268 258 227 218 205 208 219 262 279 302 318 295 330 299 249 194 217 225
Height
1530 1530 1530 1530 1530 1530 1530 1530 1530 1530 1530 1531 1531 1531 1531 1531 1531 1531 1530 1530 1530 1529 1528 1528 1528 1528 1528 1528 1529 1530 1531 1532 1533 1533 1534 1535 1535 1536 1536 1537 1537 1537 1538
1531 1530 1530 1531 1531 1531 1531 1531 1531 1531 1531 1531 1531 1531 1531 1531 1531 1531 1531 1531 1530 1530 1529 1529 1528 1528 1528 1529 1529 1530 1531 1532 1533 1533 1534 1534 1535 1535 1536 1537 1537 1538 1538
1531 1531 1531 1531 1531 1531 1531 1531 1531 1531 1531 1531 1532 1532 1532 1532 1532 1532 1532 1531 1531 1531 1530 1530 1529 1529 1529 1529 1530 1530 1531 1532 1532 1533 1533 1534 1535 1535 1536 1536 1537 1537 1538
1531 1531 1531 1531 1531 1531 1531 1531 1531 1531 1531 1531 1531 1532 1532 1532 1532 1532 1532 1532 1532 1531 1531 1531 1530 1530 1530 1530 1530 1531 1531 1532 1532 1533 1533 1533 1534 1534 1535 1535 1536 1537 1538
1531 1531 1531 1531 1531 1531 1531 1531 1531 1531 1531 1531 1531 1531 1532 1532 1532 1532 1532 1532 1532 1532 1532 1531 1531 1531 1531 1531 1531 1531 1531 1532 1532 1533 1533 1533 1533 1533 1533 1534 1535 1536 1537
1531 1531 1531 1531 1530 1530 1530 1530 1530 1531 1531 1531 1531 1531 1531 1532 1532 1532 1533 1533 1532 1532 1532 1532 1531 1531 1531 1531 1531 1531 1531 1532 1532 1532 1532 1532 1532 1532 1531 1532 1534 1535 1536
1530 1530 1530 1530 1530 1530 1530 1530 1530 1530 1530 1531 1531 1531 1531 1532 1532 1532 1533 1533 1533 1532 1532 1532 1531 1531 1531 1531 1531 1531 1531 1531 1532 1532 1532 1531 1531 1531 1531 1532 1533 1534 1535
1529 1529 1529 1529 1529 1529 1529 1530 1530 1530 1530 1530 1531 1531 1531 1533 1532 1533 1533 1533 1533 1532 1532 1532 1532 1531 1531 1531 1531 1531 1531 1531 1531 1531 1531 1531 1531 1531 1531 1532 1532 1533 1534
1529 1529 1528 1528 1528 1529 1529 1529 1529 1530 1530 1530 1531 1532 1531 1531 1532 1533 1533 1532 1533 1532 1532 1532 1532 1532 1531 1531 1531 1531 1531 1531 1531 1531 1531 1531 1531 1531 1531 1531 1532 1533 1534
1527 1528 1528 1527 1527 1528 1528 1528 1529 1529 1529 1529 1530 1531 1532 1532 1532 1532 1532 1532 1532 1532 1532 1532 1532 1532 1531 1531 1531 1531 1531 1531 1531 1531 1531 1530 1530 1530 1530 1531 1531 1532 1533
1526 1527 1527 1526 1527 1527 1527 1528 1528 1528 1528 1529 1529 1530 1530 1531 1531 1531 1531 1531 1532 1532 1532 1532 1532 1532 1531 1531 1531 1531 1531 1531 1530 1530 1530 1530 1530 1530 1530 1530 1531 1531 1532
1525 1525 1525 1525 1526 1526 1526 1527 1527 1527 1528 1528 1529 1529 1529 1530 1530 1530 1530 1530 1530 1531 1531 1531 1531 1531 1531 1531 1530 1530 1530 1530 1530 1529 1529 1529 1529 1529 1529 1529 1529 1530 1530
1524 1524 1524 1524 1524 1525 1525 1525 1526 1526 1527 1527 1528 1528 1529 1529 1529 1529 1529 1529 1529 1530 1530 1530 1530 1530 1530 1530 1529 1529 1529 1529 1529 1529 1528 1528 1528 1528 1528 1528 1528 1529 1529
1522 1522 1523 1523 1523 1523 1524 1524 1525 1525 1526 1526 1527 1527 1527 1528 1528 1528 1528 1528 1528 1529 1529 1529 1529 1529 1529 1528 1528 1528 1528 1528 1528 1527 1527 1527 1527 1527 1527 1527 1527 1527 1528
1521 1521 1521 1521 1521 1522 1522 1523 1523 1524 1524 1525 1525 1525 1526 1526 1526 1527 1527 1527 1528 1527 1527 1528 1528 1528 1528 1527 1527 1527 1526 1526 1526 1526 1525 1525 1525 1525 1525 1525 1525 1526 1526
1519 1519 1519 1520 1520 1520 1521 1521 1521 1522 1523 1523 1524 1524 1524 1524 1525 1525 1525 1525 1526 1526 1525 1526 1526 1526 1526 1526 1525 1525 1524 1524 1524 1523 1523 1523 1523 1523 1523 1523 1523 1523 1523
1517 1517 1517 1518 1518 1518 1519 1520 1520 1521 1521 1522 1522 1522 1522 1522 1522 1523 1523 1523 1524 1524 1523 1523 1524 1523 1523 1523 1523 1523 1522 1522 1521 1521 1521 1521 1521 1521 1521 1521 1521 1521 1521
1515 1515 1515 1516 1516 1517 1517 1518 1518 1519 1519 1520 1520 1520 1520 1521 1521 1521 1521 1521 1521 1521 1522 1521 1521 1521 1521 1520 1520 1520 1520 1519 1519 1519 1519 1518 1518 1518 1518 1519 1519 1519 1519
1512 1513 1513 1514 1514 1515 1515 1516 1516 1517 1518 1518 1518 1519 1519 1519 1519 1519 1518 1518 1519 1519 1519 1519 1518 1518 1518 1518 1517 1517 1517 1517 1516 1516 1516 1516 1516 1516 1516 1516 1516 1516 1516
1509 1510 1511 1512 1513 1513 1513 1514 1515 1515 1516 1516 1516 1517 1517 1516 1516 1516 1516 1516 1516 1516 1516 1516 1516 1516 1515 1515 1515 1514 1513 1514 1513 1513 1513 1513 1513 1513 1513 1513 1514 1514 1513
1507 1508 1509 1510 1511 1511 1511 1512 1512 1513 1514 1514 1514 1515 1514 1514 1514 1514 1514 1513 1513 1513 1513 1513 1513 1512 1512 1511 1511 1511 1510 1510 1510 1510 1510 1510 1510 1510 1510 1510 1510 1511 1511
1504 1505 1506 1507 1508 1508 1509 1510 1510 1511 1511 1511 1512 1512 1512 1511 1511 1511 1511 1511 1511 1510 1510 1510 1509 1509 1508 1508 1508 1507 1507 1506 1506 1507 1506 1506 1506 1506 1506 1507 1507 1507 1507
1501 1502 1503 1504 1505 1506 1507 1507 1508 1508 1508 1509 1509 1509 1509 1508 1508 1508 1508 1508 1507 1507 1507 1507 1506 1505 1505 1505 1504 1504 1503 1503 1502 1503 1503 1502 1502 1502 1503 1503 1504 1504 1504
1498 1499 1500 1501 1502 1503 1504 1504 1505 1506 1506 1506 1506 1506 1505 1505 1505 1504 1504 1504 1503 1503 1503 1503 1503 1502 1502 1502 1501 1501 1500 1500 1500 1500 1500 1499 1499 1499 1499 1500 1501 1501 1501
1495 1496 1497 1498 1499 1499 1500 1501 1502 1502 1502 1503 1503 1503 1502 1502 1501 1501 1501 1500 1500 1500 1500 1500 1500 1499 1499 1498 1498 1498 1497 1497 1496 1496 1497 1496 1496 1496 1496 1496 1497 1498 1498
1492 1493 1494 1495 1495 1496 1496 1497 1498 1498 1498 1499 1499 1499 1499 1499 1498 1498 1497 1497 1496 1496 1496 1496 1496 1496 1495 1495 1495 1495 1494 1494 1493 1493 1493 1493 1493 1493 1492 1493 1494 1494 1495